THOR AGENA D R/B

基本信息
目录编号:
815
目录名称:
THOR AGENA D R/B
国际标识:
1964-031C
轨道中心:
EARTH
物体状态:
在轨
发射日期:
1964-06-18 UTC
国别:
美国 (US)
轨道信息
数据来源: 国际轨道数据
星历时间: 2026-07-13T18:53:53+0800
半长轴: 7174.834km
偏心率: 0.0010921
轨道倾角: 99.823°
近地点辐角: 221.226°
升交点赤经: 148.051°
平近点角: 138.810°
近地点: 788.861km
远地点: 804.533km
周期: 100.804分钟
每日圈数: 14.285156
详细信息
发射场:
AFWTR
轨道高度:
LEO
数据来源:
AOE Integration Group
参考系:
TEME
时间系统:
UTC
历元类型:
SGP4
2D轨道图
3D轨道图
轨道高度分析图
轨道倾角分析图
轨道综合分析图
查看轨道综合分析图